TIME,DELAY(SENSOR),PRES,OXYGEN,RAWTEMP,T(OPTODE),TCPHASE,FLUOR,BETA(BETA700),BETA(BETA412),BETA(BETA440),CDOM,C(CSC),ED(ED412.40),ED(ED444.00),ED(ED489.70),ED(ED554.30),LU(LU411.80),LU(LU443.40),LU(LU489.60),LU(LU554.10),COMP,TILTX,TILTY,CHECK
1346903207,5806,866.0399780273438000,47.6311111450195300,663.7952880859375000,4.5029430389404300,53.9214706420898440,53,99,87,81,80,15296,2147755849,2147423012,2148009691,2147872393,2147639433,2147060461,2148259382,2147199734,1482,5,13,6076
1346906803,5806,925.1599731445312000,51.3416404724121100,674.0490112304688000,4.1643509864807130,53.5371093750000000,52,97,88,79,81,15306,2147759981,2147420278,2148009947,2147873097,2147645101,2147058075,2148257718,2147196672,3150,5,13,52228
1346910403,5808,953.5300292968750000,51.5404815673828100,674.2689819335938000,4.1570739746093750,53.5156211853027340,52,98,86,79,81,15306,2147758153,2147419035,2148011108,2147873014,2147645083,2147058130,2148260873,2147198683,3540,5,13,17389
1346914003,5810,969.4799804687500000,52.8634185791015600,677.5709838867188000,4.0477709770202640,53.3755187988281250,52,99,88,80,81,15305,2147763382,2147419163,2148008896,2147876964,2147645357,2147061494,2148261229,2147194706,363,5,13,41143
1346917603,5808,976.3599853515625000,52.9375305175781250,678.2208251953125000,4.0262470245361330,53.3733901977539060,53,98,91,79,81,15305,2147761828,2147419291,2148009060,2147876178,2147644269,2147057142,2148257188,2147197129,3412,4,13,3187
1346921203,5808,981.8400268554688000,52.7222595214843750,678.8679199218750000,4.0048098564147950,53.4151306152343750,53,105,89,80,81,15305,2147756882,2147420032,2148009261,2147873682,2147644937,2147064109,2148256566,2147199104,33,5,13,55705
1346924803,5810,991.3900146484375000,52.3981513977050800,677.5546264648438000,4.0483150482177730,53.4410591125488300,52,97,85,78,82,15301,2147763419,2147419593,2148007515,2147876288,2147642166,2147062317,2148256137,2147198217,3579,5,13,400
1346928403,5807,995.9799804687500000,52.4546394348144500,677.9080810546875000,4.0366082191467285,53.4336585998535160,53,98,83,79,82,15301,2147757613,2147421961,2148011876,2147874102,2147643922,2147062354,2148254784,2147199588,3133,4,13,63662
1346932003,5808,993.2399902343750000,52.3498497009277340,677.6588745117188000,4.0448589324951170,53.4492492675781250,52,99,85,79,81,15302,2147761261,2147421174,2148008502,2147874532,2147644452,2147061878,2148259730,2147198345,156,4,13,2141
1346935603,5807,1001.4600219726562000,52.4642181396484400,677.8394165039062000,4.0388832092285160,53.4358100891113300,52,98,88,79,82,15300,2147759698,2147423753,2148009188,2147874368,2147642550,2147059867,2148260077,2147197385,3507,5,13,14348
1346939203,5810,998.7600097656250000,52.0673904418945300,677.2246704101562000,4.0592398643493650,53.4772987365722660,53,98,88,79,82,15300,2147762112,2147422921,2148007222,2147875117,2147644809,2147062226,2148265792,2147198454,174,5,13,15071
1346942803,5813,998.0499877929688000,51.8362503051757800,677.8488159179688000,4.0385718345642090,53.5198287963867200,51,101,88,79,82,15299,2147759670,2147421129,2148010934,2147873225,2147641170,2147064557,2148259712,2147196150,3481,5,13,31832
1346946403,5813,1002.4299926757812000,51.3130989074707000,675.4229125976562000,4.1188931465148930,53.5582885742187500,52,98,86,79,82,15299,2147760054,2147421531,2148010130,2147875812,2147644790,2147061165,2148260205,2147196827,280,5,13,5434
1346950003,5808,989.9400024414062000,51.3026008605957000,676.1364135742188000,4.0952739715576170,53.5695190429687500,53,98,89,79,81,15294,2147759680,2147422628,2148009810,2147872713,2147643428,2147061001,2148260946,2147196717,3544,5,13,44851
1346953603,5812,993.3499755859375000,51.7648696899414060,678.7877807617188000,4.0074629783630370,53.5370788574218750,53,98,89,80,81,15288,2147758619,2147422034,2148010276,2147873563,2147644708,2147062738,2148260452,2147194806,58,5,13,37983
1346957203,5810,994.8499755859375000,52.1475906372070300,681.3198852539062000,3.9235250949859620,53.5222587585449200,53,99,92,78,81,15290,2147760466,2147420918,2148011821,2147873645,2147645613,2147063579,2148257508,2147195885,437,5,13,63980
1346960803,5811,1000.1300048828125000,52.0101814270019500,679.7310180664062000,3.9762060642242430,53.5224494934082000,52,98,86,79,82,15286,2147755894,2147420425,2148009280,2147875053,2147644306,2147059931,2148258697,2147197540,843,5,13,54068
1346964403,5810,993.7399902343750000,52.0459213256835940,679.4785156250000000,3.9845750331878660,53.5151596069335940,53,99,85,81,82,15284,2147760283,2147420946,2148012315,2147872073,2147646454,2147059840,2148259154,2147198482,434,5,13,47802
1346968003,5810,1001.8699951171875000,52.0318984985351560,679.7003784179688000,3.9772191047668457,53.5182495117187500,52,98,86,80,82,15284,2147761097,2147421988,2148009929,2147872539,2147644946,2147057371,2148262848,2147196288,1041,4,13,5486
1346971603,5811,1008.9099731445312000,52.5052413940429700,678.7899780273438000,4.0073890686035160,53.4412193298339840,53,98,91,79,82,15286,2147765220,2147421522,2148011072,2147871926,2147643245,2147064932,2148263661,2147199341,2984,5,13,30557
1346975203,5809,999.9799804687500000,51.8962402343750000,678.9414062500000000,4.0023732185363770,53.5264587402343750,52,96,85,79,82,15288,2147761362,2147421558,2148007177,2147873389,2147643483,2147062976,2148257234,2147198098,3231,5,13,6632
1346978803,5807,1008.5800170898438000,52.3170814514160160,678.1995239257812000,4.0269551277160645,53.4598693847656250,53,99,88,78,82,15288,2147759286,2147421412,2148008996,2147873252,2147643072,2147058934,2148259245,2147196050,180,5,13,13731
1346982403,5812,1008.7199707031250000,52.1710510253906250,678.1019897460938000,4.0301861763000490,53.4743194580078100,53,99,88,80,81,15279,2147757184,2147422966,2148008969,2147872822,2147646016,2147060589,2148265682,2147199332,7,5,13,13439
1346986003,5807,1000.8699951171875000,51.8844718933105500,677.8494262695312000,4.0385532379150390,53.5149612426757800,53,98,87,80,81,15276,2147760137,2147421421,2148010825,2147874322,2147643538,2147061641,2148259382,2147195904,216,5,13,55201
1346989603,5810,1005.5599975585938000,52.0569610595703100,678.2147827148438000,4.0264449119567870,53.4967384338378900,52,100,86,79,82,15276,2147762733,2147421339,2148006637,2147871808,2147644032,2147058285,2148259913,2147202377,248,4,13,62439
1346993203,5810,1002.8099975585938000,50.7661895751953100,678.2011718750000000,4.0268988609313965,53.6672286987304700,52,98,84,78,82,15281,2147762907,2147421577,2148008640,2147874834,2147641554,2147056457,2148259849,2147197504,3572,5,13,51714
1346996803,5810,1003.5000000000000000,50.9669189453125000,678.4890747070312000,4.0173587799072270,53.6413993835449200,52,98,87,79,81,15282,2147759917,2147423195,2148008813,2147875693,2147639241,2147064905,2148262482,2147197056,93,5,13,48258
1347000403,5808,1002.4400024414062000,51.6398010253906250,677.9462280273438000,4.0353431701660160,53.5449295043945300,52,99,88,79,81,15277,2147759945,2147418742,2148008173,2147870838,2147643437,2147062619,2148259876,2147198902,409,5,13,16003
1347004003,5809,1000.3699951171875000,51.8462905883789060,679.2763061523438000,3.9912741184234620,53.5339698791503900,53,99,83,79,82,15276,2147763492,2147420406,2148008521,2147875364,2147644461,2147058953,2148264429,2147197056,465,5,13,25820
1347007603,5810,1001.8099975585938000,51.5927581787109400,680.1173706054688000,3.9633979797363280,53.5834007263183600,52,97,85,79,81,15277,2147760786,2147422555,2148007561,2147870016,2147646720,2147061394,2148263250,2147195510,3491,4,14,3370
1347011203,5810,1009.4500122070312000,52.2090301513671900,679.0662841796875000,3.9982359409332275,53.4863700866699200,52,99,93,78,82,15279,2147758272,2147422656,2148010057,2147871277,2147644187,2147053723,2148257472,2147197677,116,5,13,59054
1347014803,5805,1006.5000000000000000,51.8046112060546900,679.8004150390625000,3.9739069938659670,53.5446815490722660,53,96,89,79,83,15276,2147757632,2147420306,2148008585,2147873700,2147642541,2147060580,2148259830,2147195474,3164,5,13,33171
1347018403,5810,998.0000000000000000,52.0750808715820300,679.1323852539062000,3.9960439205169678,53.5061492919921900,52,100,91,79,81,15279,2147759853,2147421988,2148006537,2147872950,2147639634,2147056896,2148259968,2147196470,215,5,13,50385
1347022003,5808,996.3099975585938000,51.4951210021972660,680.9332275390625000,3.9363520145416260,53.6050605773925800,52,98,87,79,82,15277,2147759012,2147421220,2148007524,2147875044,2147641865,2147057691,2148259995,2147196882,1244,5,13,53307
1347025603,5810,1017.6900024414062000,52.0467491149902340,677.7714843750000000,4.0411300659179690,53.4864501953125000,52,99,89,79,81,15237,2147760630,2147419163,2148010130,2147874514,2147643867,2147061238,2148263652,2147194349,3253,5,13,28561
1347029203,5810,1007.1199951171875000,51.3732910156250000,677.7055053710938000,4.0433177947998050,53.5808715820312500,53,97,86,78,81,15240,2147758482,2147422180,2148012525,2147874038,2147641901,2147062564,2148263753,2147195977,1839,4,13,53186
1347032803,5806,1003.1799926757812000,51.6090507507324200,679.0869140625000000,3.9975550174713135,53.5664405822753900,52,100,87,79,81,15246,2147759625,2147420470,2148010889,2147872813,2147643702,2147060946,2148261248,2147195876,359,5,13,3180
1347036403,5806,1003.5399780273438000,51.6692504882812500,678.7205200195312000,4.0096931457519530,53.5523490905761700,52,98,85,79,81,15243,2147756187,2147420150,2148012571,2147875702,2147641801,2147062125,2148261641,2147197787,3129,5,13,46810
1347040003,5813,996.0399780273438000,51.3072319030761700,681.4890136718750000,3.9179170131683350,53.6399803161621100,53,98,91,78,82,15242,2147761078,2147420004,2148009142,2147873408,2147641892,2147059666,2148258843,2147195392,3265,4,13,4972
1347043603,5807,1006.7500000000000000,51.8479881286621100,682.0239257812500000,3.9001750946044920,53.5720100402832000,52,99,85,79,81,15241,2147756434,2147420032,2148011337,2147874377,2147642304,2147058404,2148259712,2147194441,203,5,13,21369
1347047203,5809,1009.9400024414062000,51.8880882263183600,680.4345703125000000,3.9528810977935790,53.5459098815918000,53,98,85,79,81,15240,2147759862,2147420553,2148010779,2147876187,2147646820,2147056557,2148264265,2147197101,2216,4,13,35393
1347047456,5809,1007.3900146484375000,51.9703788757324200,680.1168823242188000,3.9634149074554443,53.5337905883789060,53,102,88,79,81,15288,2147760521,2147423945,2148013677,2147874148,2147641545,2147057435,2148262436,2147199954,1673,4,13,12008
